Tracking 35331 objects as of 16-Sep-2026
HD Live streaming from Space Station
objects crossing your sky now

STARLINK-30141

Track STARLINK-30141 now!
10-day predictions
STARLINK-30141 is classified as:


NORAD ID: 57620
Int'l Code: 2023-119U
Launch date: August 11, 2023
Source: United States (US)
Launch site: AIR FORCE EASTERN TEST RANGE (AFETR)
Your satellite tracking list
Your tracking list is empty




NASA's NSSDC Master Catalog

Two Line Element Set (TLE):
1 57620U 23119U   26258.87264900 -.00005381  00000-0 -18600-3 0  9992
2 57620  43.0013  87.4208 0001287 257.0798 102.9910 15.27609693172176
Source of the keplerian elements: AFSPC